Regional Weather Roundup
Issued by NWS Cleveland, OH

Home | Current Version | Previous Version | Graphics & Text | Print | Product List | Glossary On
Versions: 1 2 3 4 5 6 7 8 9 10 11 12 13 14 15 16 17 18 19 20 21 22 23 24 25 26 27 28 29 30 31 32 33 34 35 36 37 38 39 40 41 42 43 44 45 46 47 48 49 50
000
ASUS41 KCLE 271912
RWRCLE
OHIO REGIONAL WEATHER ROUNDUP
NATIONAL WEATHER SERVICE WILMINGTON, OH
300 PM EDT SAT AUG 27 2016

NOTE: "FAIR" INDICATES FEW OR NO CLOUDS BELOW 12,000 FEET WITH NO
SIGNIFICANT WEATHER AND/OR OBSTRUCTIONS TO VISIBILITY.

OHZ001>008-015>018-024>027-034-035-043-044-272000-
   NORTHWEST OHIO

CITY           SKY/WX    TMP DP  RH WIND       PRES   REMARKS
DEFIANCE       FAIR      76  71  85 E3        30.11F
FINDLAY        FAIR      80  69  69 NW17G28   30.11R
TOLEDO EXPRESS TSTM      70  70 100 NW5       30.12S FOG
TOLEDO EXEC    TSTM      73  72  96 NW23G39   30.15R VSB 1/2
LIMA           FAIR      79  74  84 NW10      30.12R
$$

OHZ009>014-019>023-028>033-038-089-272000-
   NORTHEAST OHIO

CITY           SKY/WX    TMP DP  RH WIND       PRES   REMARKS
CLE-HOPKINS    FAIR      91  65  41 S8        30.11F HX  93
CLE-LAKEFRONT  FAIR      92  66  42 S12       30.08F HX  94
CUY CO. ARPT   MOSUNNY   91  68  46 MISG      30.12F HX  95
LORAIN-ELYRIA  FAIR      89  68  49 S15G21    30.10F HX  93
ASHTABULA      FAIR      85  62  46 S10       30.15F
AKRON-CANTON   FAIR      89  65  44 S12       30.13F HX  91
WOOSTER        FAIR      86  69  56 SE9       30.13F HX  90
MANSFIELD      FAIR      88  70  55 S12       30.13F HX  93
YOUNGSTOWN     PTSUNNY   84  65  52 SE5       30.15F
$$

OHZ042-051>053-060>062-070>072-077>081-272000-
  SOUTHWEST OHIO

CITY           SKY/WX    TMP DP  RH WIND       PRES   REMARKS
CINC-COVINGTON LGT RAIN  73  72  94 N8        30.14F
CINC-LUNKEN    LGT RAIN  73  70  88 MISG      30.13R
HAMILTON       TSTM      72  68  87 NW13      30.15R
DAYTON         PTSUNNY   86  70  58 W10       30.12F HX  90
WRIGHT-PAT AFB CLOUDY    88  72  57 SW8       30.09F HX  95
DAYTON GENERAL TSTM      72  66  81 W26G41    30.17R
WILMINGTON     FAIR      90  73  57 S8        30.11S HX  98
$$

OHZ036-037-039>041-045>050-054>059-063>069-073>076-082>088-272000-
  CENTRAL AND SOUTHEAST OHIO

CITY           SKY/WX    TMP DP  RH WIND       PRES   REMARKS
COLUMBUS       FAIR      88  71  57 S8        30.10S HX  94
OSU AIRPORT    FAIR      88  71  57 S8        30.10F HX  94
BOLTON FIELD   MOSUNNY   90  75  62 S7        30.11F HX 100
RICKENBACK AFB FAIR      90  73  57 SE7       30.09F HX  98
NEWARK         FAIR      91  71  51 S9        30.11F HX  97
MARION         FAIR      88  71  57 S14       30.12S HX  94
LANCASTER      FAIR      91  73  55 S8        30.11S HX  99
ZANESVILLE     FAIR      90  70  51 SE8       30.12F HX  95
NEW PHILLY     FAIR      91  67  44 S8        30.13F HX  94
$$




USA.gov is the U.S. government's official web portal to all federal, state and local government web resources and services.